User: anonymous   Login
Location: Unspecified
(0.0000°N, 0.0000°E)
Time: 14:13:15
(UTC+02:00)
Language:

YAOGAN 3 - Orbit

View from above orbital plane
View from above orbital plane
View from above satellite
View from above satellite

Ground track
Ground track

The orbit data is extracted from the following two-line orbital elements,

1 32289U 07055A   16241.17597831  .00000387  00000-0  57147-4 0  9992
2 32289  97.9892 238.0427 0001414 103.1616 256.9746 14.80728620475377
Epoch (UTC): 28 August 2016 04:13:24
Eccentricity: 0.0001414
inclination: 97.9892°
perigee height: 626 km
apogee height: 628 km
right ascension of ascending node: 238.0427°
argument of perigee: 103.1616°
revolutions per day: 14.80728620
mean anomaly at epoch: 256.9746°
orbit number at epoch: 47537

The dashed part of the orbit path shows where the satellite is in the earth's shadow,  

DLR